[Date Prev][Date Next][Thread Prev][Thread Next] - [Date Index][Thread Index][Author Index]
Mir,SSTV Status Dec 9, 1998
- Subject: [sarex] Mir,SSTV Status Dec 9, 1998
- From: "Miles Mann" <Miles_Mann@xxxxxxxxxx>
- Date: Wed, 9 Dec 1998 09:19:38 -0500
Mir Amateur Radio Status: Dec 9, 1998
by Miles Mann WF1F,
MAREX-NA (Manned Amateur Radio Experiment, North American Division)
PMS is off Line (Temporarily)
The Mir crew has received the information needed to reset the PMS. The
Sysops will be working
with the crew to verify the PMS parameter configuration. PMS access may be
limited while
we are re-cabling all of the ham gear to support simultaneous PMS (2-meter
145.985) and SSTV (70cm 437.975) access.
SSTV Status: (Hardware installed)
The Energia engineering team has instructed the Mir crew on the
installation of the SSTV system. MAREX-NA sent the crew the cable
installation instructions via packet a few weeks ago. The cable
installation is complex and has been completed. The existing PMS system
needs to be
moved from the PRIRODA module to the Mir-Core module. Both the SSTV and
the PMS will
be sharing the same antenna. MAREX-NA has delivered all of the required
cables, filter etc.
to complete the connections. It is very important that all of the
connections are made correctly.
It is possible there may be additional PMS down time next week while the
SSTV is being installed.
Update December 8 ,1998
I had a conversation with Cosmonaut Gennady on board Mir today and we
began debugging the SSTV system.
The crew has connected the MAREX-NA SSTV System and powered on the system.
We are in the process of
verifying all of the cable connections.
I invite everyone to listen to 437.975 FM for the down linking of SSTV
images. The system is currently
configured for Receive ONLY at this time. As soon as we have verified all
of the cables and performed
some ON-AIR testing, we will announce the official beginning of the
downlinking of images.
If you hear the Mir crew calling the Sysops on voice (WF1F or N6CO) Please
stop and listen.
Let the Mir crew contact the Sysops.
We hope to have the down link operational by next week (Crew work load
permitting).
73 Miles
Tracking Mir, Sputnik and Zarya
MIR
1 16609U 86017A 98342.46034402 .00045630 00000-0 33705-3 0 218
2 16609 51.6583 240.1690 0007580 64.3559 295.8413 15.72470683731406
KVANT 1
1 17845U 87030A 98341.82482796 .00016725 00000-0 12729-3 0 6121
2 17845 51.6582 243.4227 0007746 58.3953 301.8595 15.72390305665413
KVANT 2
1 20335U 89093A 98341.82482796 .00016725 00000-0 12729-3 0 4375
2 20335 51.6582 243.4227 0007746 58.3953 301.8595 15.72390305514425
KRISTALL
1 20635U 90048A 98341.82482796 .00016725 00000-0 12729-3 0 2299
2 20635 51.6582 243.4227 0007746 58.3953 301.8595 15.72390305485256
SPEKTR
1 23579U 95024A 98341.82482796 .00016725 00000-0 12729-3 0 1938
2 23579 51.6582 243.4227 0007746 58.3953 301.8595 15.72390305202736
PRIRODA
1 23848U 96023A 98341.82482796 .00016725 00000-0 12729-3 0 8754
2 23848 51.6582 243.4227 0007746 58.3953 301.8595 15.72390305149825
SOYUZ TM-28
1 25429U 98047A 98341.82482796 .00016725 00000-0 12729-3 0 1268
2 25429 51.6582 243.4227 0007746 58.3953 301.8595 15.72390305 18298
PROGRESS M-40
1 25512U 98062A 98341.82482796 .00016725 00000-0 12729-3 0 537
2 25512 51.6582 243.4227 0007746 58.3953 301.8595 15.72390305 6872
Web Page information:
For information about the MAREX-NA SSTV project, check the web page at:
http://www.geocities.com/CapeCanaveral/Hangar/7355/sstv_proj.htm
For general information about some of the Mir Projects, check the web page
at
http://www.ik1sld.org/mirex.htm OR
or
http://www.geocities.com/CapeCanaveral/Lab/3431/mirex.htm
Copyright 1998 Miles Mann, All Rights Reserved. This document may be
freely distributed via the following means - Email (including listservers),
Usenet, and WorldWideWeb. It may not be reproduced for profit including,
but not limited to, CD ROMs, books, and/or other commercial outlets without
prior written consent from the author.
Miles WF1F
----
Via the sarex mailing list at AMSAT.ORG courtesy of AMSAT-NA.
To unsubscribe, send "unsubscribe sarex" to Majordomo@amsat.org
AMSAT Home